This demonstration page uses our WeatherBlox Daily Observations layout. Learn more.

Left ArrowRight Arrow

39.08367, -84.50855

Hourly Observations for February 2, 2016

Temp ( °F °C ) Dew Point ( °F °C ) Humidity (%) Winds ( mph kmh ) Pressure ( in mb ) Visibility ( mi km ) Precip ( " mm )
12:53 am 00:53 Clear 26 -3.3 25 -3.9 96 96 S 5 7 30.13 1020 10 16 N/A
1:53 am 01:53 Clear 28 -2.2 26 -3.3 92 92 N N/A 30.14 1021 8 13 N/A
2:53 am 02:53 Clear 28 -2.2 28 -2.2 100 100 NNE 5 7 30.12 1020 7 11 N/A
3:53 am 03:53 Clear 27 -2.8 26 -3.3 96 96 N N/A 30.14 1021 7 11 N/A
4:53 am 04:53 Clear with Mist and Fog 29 -1.7 28 -2.2 96 96 NNE 3 6 30.15 1021 6 10 N/A
5:53 am 05:53 Clear 28 -2.2 27 -2.8 96 96 NNE 7 11 30.13 1020 8 13 N/A
6:53 am 06:53 Clear 33 0.6 31 -0.6 92 92 NNE 6 9 30.11 1020 10 16 N/A
7:53 am 07:53 Sunny with Mist and Fog 30 -1.1 29 -1.7 96 96 NNE 6 9 30.12 1020 6 10 N/A
8:53 am 08:53 Mostly Sunny 36 2.2 33 0.6 89 89 NNE 6 9 30.10 1019 8 13 N/A
9:53 am 09:53 Mostly Cloudy 41 5 36 2.2 82 82 NNE 5 7 30.13 1020 10 16 N/A
10:53 am 10:53 Cloudy 45 7.2 37 2.8 74 74 E 10 17 30.09 1019 10 16 N/A
11:53 am 11:53 Cloudy 50 10 40 4.4 68 68 E 9 15 30.02 1017 10 16 N/A
12:16 pm 12:16 Partly Cloudy 50 10 41 5 71 71 SE 7 11 30.00 1016 10 16 N/A
12:53 pm 12:53 Mostly Sunny 54 12.2 43 6.1 67 67 ESE 12 19 29.96 1014 10 16 N/A
1:53 pm 13:53 Mostly Cloudy 58 14.4 47 8.3 67 67 SSE 9 15 29.88 1012 10 16 N/A
2:53 pm 14:53 Mostly Sunny 59 15 47 8.3 64 64 SE 10 17 29.81 1010 10 16 N/A
3:53 pm 15:53 Cloudy with Light Rain 57 13.9 51 10.6 81 81 SSE 6 9 29.80 1009 5 8 0.04 1.02
4:53 pm 16:53 Mostly Cloudy 57 13.9 53 11.7 87 87 N N/A 29.77 1008 10 16 0.01 0.25
5:53 pm 17:53 Mostly Cloudy with Rain 59 15 52 11.1 78 78 SSW 5 7 29.76 1008 6 10 0.01 0.25
6:53 pm 18:53 Mostly Cloudy with Light Rain 57 13.9 53 11.7 87 87 W 6 9 29.72 1007 9 14 N/A
7:53 pm 19:53 Cloudy with Rain 55 12.8 54 12.2 96 96 N N/A 29.70 1006 3 5 0.13 3.30
8:53 pm 20:53 Cloudy with Rain 55 12.8 55 12.8 100 100 W 5 7 29.72 1006 2 3 0.18 4.57
9:06 pm 21:06 Cloudy with Light Rain 54 12 54 12 100 100 ESE 5 7 29.71 1006 4 6 N/A
9:13 pm 21:13 Cloudy with Rain 54 12.2 54 12.2 100 100 E 5 7 29.71 1006 2 3 0.03 0.76
9:27 pm 21:27 Cloudy with Rain 54 12.2 54 12.2 100 100 ENE 3 6 29.71 1006 3 4 0.06 1.52
9:50 pm 21:50 Cloudy with Light Rain 55 13 55 13 100 100 S 7 11 29.68 1005 6 10 N/A
9:53 pm 21:53 Cloudy with Rain 56 13.3 56 13.3 100 100 SSE 10 17 29.69 1006 6 10 0.10 2.54
10:53 pm 22:53 Cloudy with Rain 60 15.6 57 13.9 90 90 SSE 14 22 29.62 1003 4 6 0.10 2.54
11:53 pm 23:53 Cloudy with Rain 60 15.6 57 13.9 90 90 S 16 26 29.61 1003 5 8 0.11 2.79

Powered by AerisWeather